Theta_e
340 339 340 338 338 337 339 336 339 339 340 342 343 342 339 340 340 338 340 346 345 344 343 343 342 341 343 346 346 347 347 349 348 346 344 341 341 342 342 342 340 339 338
344 341 340 342 341 339 339 338 337 339 341 342 343 343 342 342 341 340 339 342 345 345 344 344 344 344 344 344 345 347 347 348 347 347 344 342 339 342 342 342 340 339 338
344 345 343 338 341 344 340 341 339 340 343 344 343 344 341 342 340 340 341 338 340 345 345 346 345 344 343 343 345 346 347 346 346 346 343 341 340 342 343 341 340 339 338
350 349 344 344 342 343 342 341 341 340 339 340 341 340 344 343 341 340 341 337 337 337 341 345 345 344 343 344 345 345 347 345 346 345 344 342 342 343 343 342 342 342 341
351 350 347 345 348 343 340 341 340 338 338 339 337 340 342 339 339 340 339 338 338 338 337 342 342 344 343 345 345 345 345 345 344 345 344 343 343 344 343 341 341 341 339
354 350 350 347 351 342 342 340 338 340 338 338 335 338 339 339 340 339 338 337 338 338 339 337 338 338 342 343 345 346 344 344 345 346 344 342 342 342 342 341 340 340 340
353 352 347 350 347 344 341 344 342 340 336 336 337 336 334 337 336 336 338 337 336 337 337 337 336 335 337 340 342 344 345 343 343 346 345 342 341 342 340 340 339 341 337
353 352 348 347 346 345 345 345 341 336 335 337 333 331 324 328 333 334 335 336 334 335 335 335 334 336 335 335 338 343 345 344 343 345 344 341 342 342 340 338 341 340 336
353 351 348 347 347 346 342 343 340 337 332 338 337 330 322 318 324 331 331 334 334 334 334 331 336 335 335 336 338 340 343 343 344 344 344 342 342 342 341 341 340 338 335
351 350 348 348 347 344 344 340 341 338 339 332 335 335 333 329 320 319 328 330 333 332 331 332 329 332 335 333 339 339 339 340 344 345 344 343 343 341 342 341 339 337 335
347 347 347 348 345 344 345 341 339 341 340 335 333 331 330 329 328 322 318 323 329 330 331 330 326 329 334 331 333 336 338 338 339 341 342 343 343 342 341 339 338 337 335
343 344 345 346 345 345 346 344 344 341 339 337 335 332 327 324 323 323 321 321 321 326 329 329 330 331 333 330 336 336 334 332 333 334 335 338 341 342 340 339 338 337 335
340 344 345 344 346 348 346 343 343 341 340 337 335 331 331 330 328 327 325 321 320 323 325 328 331 332 334 334 334 336 333 328 329 329 330 331 336 337 337 338 337 336 336
343 345 347 345 347 346 344 344 342 340 339 337 335 334 333 332 329 326 325 321 317 320 324 323 331 332 331 334 335 336 333 329 328 326 326 328 331 333 333 334 334 333 332
347 346 348 345 345 345 343 342 340 339 338 337 335 335 332 332 332 329 328 326 322 315 317 325 325 330 332 333 333 334 334 328 328 324 324 324 326 326 327 328 328 328 328
348 347 345 345 344 342 342 340 338 338 336 336 335 334 333 333 331 331 329 328 326 321 317 325 327 330 331 333 334 333 333 328 325 323 323 322 323 323 323 323 324 325 325
345 344 343 342 341 341 340 338 337 336 333 333 333 332 329 332 330 330 330 327 327 325 321 324 326 329 329 330 332 330 333 330 326 323 323 321 320 319 320 320 320 322 323
342 341 341 339 338 337 337 336 334 334 332 331 329 328 328 330 329 330 329 327 326 325 324 321 324 326 327 331 330 329 332 332 327 322 321 319 317 316 316 315 316 318 317
342 338 337 336 334 334 334 335 334 333 332 331 329 327 324 325 328 328 329 329 328 327 326 326 324 326 326 326 323 323 323 323 323 322 318 317 316 315 314 314 314 314 314
338 337 335 333 334 334 335 335 335 333 332 332 328 323 322 324 325 328 330 328 328 326 327 324 322 321 321 322 322 319 318 321 320 322 319 317 316 315 314 314 315 315 312
337 335 336 334 334 331 328 333 334 333 332 328 325 323 323 324 323 324 329 328 328 326 325 321 319 319 318 319 318 318 315 316 317 319 317 317 317 317 316 317 319 317 311
335 336 333 334 331 325 305 312 326 331 328 325 322 323 325 321 321 315 318 319 323 326 322 320 318 315 318 317 317 316 315 314 310 319 316 316 319 318 320 319 315 310 309
336 334 334 334 330 323 305 309 313 332 328 325 323 324 325 328 325 326 315 314 316 315 320 323 320 318 317 318 317 316 317 316 313 316 317 313 319 316 318 314 310 308 306
337 335 334 332 328 320 306 308 317 330 327 325 324 324 327 328 327 328 328 328 326 326 325 326 323 322 322 321 320 319 318 316 316 318 319 310 317 317 318 313 307 306 305
334 334 333 330 327 323 306 308 320 326 325 324 324 324 325 327 309 308 328 326 322 320 310 310 311 306 306 308 315 318 315 314 311 313 318 315 315 316 318 314 308 306 304
334 335 332 329 318 325 304 309 318 325 322 320 320 321 306 318 305 309 328 325 321 319 318 318 316 309 312 311 310 320 318 314 313 312 318 314 315 316 313 316 314 305 305
Wind_Speed
10 9 7 8 10 10 10 9 8 10 11 11 12 12 5 4 5 1 4 13 12 11 11 11 11 12 12 10 9 9 10 11 16 21 21 22 19 16 15 17 17 15 13
9 10 9 7 7 10 9 11 10 10 11 11 12 7 6 6 6 5 2 7 13 13 12 13 12 13 13 13 10 11 12 13 15 20 21 22 16 15 16 17 18 16 14
12 11 9 10 8 5 12 9 11 9 5 6 5 5 5 5 4 4 2 5 7 13 14 14 13 14 13 14 12 13 13 15 16 19 21 17 17 16 16 16 15 16 17
13 10 9 8 9 7 5 6 6 6 6 4 3 4 4 3 4 3 4 4 7 6 11 15 14 14 13 14 14 14 14 15 17 19 20 19 17 16 15 16 15 16 17
15 10 8 7 8 7 7 4 4 5 3 4 3 4 4 2 4 5 7 6 6 7 6 12 15 15 14 14 14 14 15 14 15 18 21 20 18 17 15 11 9 9 5
14 11 7 8 5 8 5 4 5 3 4 4 6 4 4 4 5 7 6 6 3 4 5 4 6 7 13 14 14 14 16 15 14 17 18 18 18 16 15 12 8 8 16
10 11 9 7 8 7 7 6 5 5 3 3 3 1 3 6 8 7 4 3 3 5 5 6 4 3 5 14 13 14 15 15 15 15 15 15 17 17 14 13 6 15 24
9 9 9 8 10 6 6 5 5 3 3 4 4 1 3 3 7 5 3 3 5 4 6 5 6 3 5 5 8 14 14 15 16 15 13 15 18 19 18 12 13 25 24
8 9 10 9 9 6 6 4 5 6 5 4 5 3 3 1 2 2 5 4 3 1 3 3 2 2 7 5 8 11 13 14 16 17 16 19 19 18 19 16 23 24 23
7 9 10 8 6 7 5 7 5 5 5 3 3 3 4 1 1 1 1 2 3 3 4 4 2 3 8 5 10 12 12 13 16 16 19 21 22 20 19 24 23 23 21
6 6 8 7 6 6 6 9 8 8 5 4 4 3 3 4 4 3 2 2 1 2 2 3 3 3 6 6 4 7 15 13 13 14 21 22 22 21 24 24 24 23 23
4 6 9 8 6 8 7 8 6 7 4 4 3 4 3 3 3 2 3 4 3 2 2 2 5 8 6 3 7 14 13 11 12 13 17 20 22 23 23 23 24 23 23
5 10 10 7 8 6 6 6 6 6 5 4 4 4 2 3 2 2 3 3 2 2 1 2 2 4 4 11 9 14 15 13 11 11 14 16 20 22 21 21 22 22 22
9 10 10 10 8 8 6 6 4 4 4 4 6 3 2 1 3 3 4 4 1 2 2 4 2 2 1 4 8 14 9 12 11 13 13 16 17 19 19 20 19 19 19
9 12 10 8 8 6 7 6 4 4 4 5 3 3 2 2 3 2 3 4 4 3 3 4 3 4 4 5 9 7 8 13 13 14 15 15 16 15 15 14 14 13 14
12 11 10 7 6 6 6 6 4 5 5 4 3 4 3 3 4 3 4 3 4 3 3 3 2 4 4 5 7 7 8 11 13 15 16 16 16 16 15 13 12 14 15
10 8 7 7 6 5 5 7 5 4 5 6 5 5 4 3 3 3 3 3 3 3 4 2 3 4 3 6 6 7 9 7 6 15 18 16 16 15 14 13 13 14 14
8 7 7 7 7 6 6 6 5 5 6 7 6 5 4 3 5 5 2 5 5 4 5 10 5 3 4 5 5 7 6 7 6 11 17 16 16 15 15 14 15 14 14
6 7 5 6 5 7 6 6 5 5 4 7 7 6 4 3 5 4 4 4 6 6 4 9 7 2 4 4 7 9 8 9 5 15 15 15 15 14 14 15 15 14 13
6 6 5 6 5 5 5 4 3 2 5 6 6 5 5 2 6 5 5 6 6 7 8 8 7 5 4 4 5 6 6 4 7 6 9 9 11 14 15 14 13 13 11
5 7 5 6 6 8 6 5 3 4 5 7 6 5 4 2 5 4 2 4 6 7 8 8 6 7 4 4 7 4 6 7 5 4 7 6 8 7 6 9 8 10 10
7 5 6 6 9 7 6 7 4 5 6 5 6 5 4 4 2 7 4 2 1 12 11 9 6 10 7 7 7 7 9 7 4 2 7 5 5 6 5 4 8 9 8
6 6 7 9 9 7 7 6 3 2 6 5 5 5 4 3 4 4 3 2 6 9 11 10 11 11 10 9 9 9 8 6 4 3 10 6 2 4 3 2 11 10 8
6 6 9 9 9 5 6 6 7 6 7 5 4 2 3 6 5 5 5 8 10 9 9 7 8 8 9 11 10 9 9 9 7 5 4 4 2 3 4 4 6 7 8
5 5 9 9 8 5 4 4 6 6 5 5 4 2 1 4 7 4 8 11 10 8 10 14 15 13 15 12 12 11 9 11 6 4 1 4 3 3 4 4 4 7 8
6 5 9 9 10 6 4 6 4 6 6 5 4 3 8 5 8 6 10 10 10 8 10 10 10 9 9 12 12 9 10 11 9 3 3 3 3 4 3 4 5 4 4
Wind_Direction
207 206 216 209 183 196 190 206 205 204 213 220 235 241 235 239 214 243 143 170 177 178 186 195 212 223 224 221 220 206 182 181 168 167 179 179 189 196 187 179 174 173 165
194 209 204 206 214 191 201 198 209 210 205 211 227 228 208 206 204 201 181 168 184 187 194 201 209 220 226 221 215 203 184 178 176 177 180 176 182 189 175 178 179 173 188
204 197 209 210 202 211 195 191 209 214 204 206 226 210 208 203 204 189 176 177 191 199 202 201 211 221 223 221 207 201 186 180 183 172 183 185 183 192 191 194 191 187 197
193 205 203 205 214 205 227 202 188 190 200 207 203 220 189 183 225 235 212 199 190 198 213 215 201 215 217 217 209 198 189 183 181 180 184 188 187 193 187 198 212 195 196
195 190 210 209 186 211 214 204 202 181 196 175 213 238 143 187 256 273 235 221 187 193 192 206 212 206 210 213 212 197 192 184 186 185 187 189 184 188 188 203 193 209 207
180 194 204 206 201 203 207 212 185 205 177 176 219 221 164 198 209 227 243 228 249 216 195 189 200 213 210 209 208 200 195 192 186 188 188 190 183 184 186 189 191 183 133
177 177 201 212 208 207 203 199 171 176 182 208 240 225 223 213 222 223 243 180 211 248 251 190 198 196 201 211 207 203 202 192 186 189 185 178 169 171 160 180 183 158 147
172 178 190 224 200 208 193 207 162 153 188 229 205 150 262 235 231 231 258 205 223 228 253 261 207 232 194 175 192 191 191 190 185 186 167 165 169 168 156 172 173 146 152
168 176 192 220 188 198 195 175 169 178 201 198 170 203 255 182 103 219 232 216 239 239 262 195 209 111 258 179 184 180 181 189 187 177 160 154 158 158 161 172 148 153 155
181 178 183 216 170 185 206 181 167 197 212 179 152 212 255 344 215 237 219 210 217 207 243 109 182 273 199 174 171 180 176 182 180 173 161 158 154 161 154 146 152 162 154
122 148 177 213 173 190 212 169 187 199 167 190 178 192 188 204 182 228 270 233 130 214 161 157 106 275 203 177 153 196 171 174 170 169 156 156 158 158 155 155 160 157 144
131 187 189 206 185 208 182 170 173 172 169 162 202 273 175 180 170 163 231 263 222 139 102 195 172 225 160 160 198 158 151 150 145 165 159 160 158 156 156 160 158 155 151
182 201 189 192 199 193 172 162 141 149 159 188 206 239 186 104 117 205 221 250 153 135 133 67 270 226 174 166 164 146 148 153 140 158 150 153 152 152 155 157 159 159 158
185 182 190 184 187 177 151 120 127 163 171 186 214 189 81 131 158 219 230 183 148 132 162 154 280 224 220 147 149 136 143 141 150 148 143 140 146 150 156 157 161 147 150
174 176 176 171 174 163 131 142 166 179 174 198 168 158 179 257 251 215 221 187 178 145 182 177 131 183 156 175 146 138 129 150 148 137 132 133 133 129 132 137 142 142 142
154 166 168 173 146 125 148 147 196 186 156 162 164 154 186 241 282 287 198 187 165 164 140 136 91 120 126 146 160 133 125 137 139 137 137 137 133 132 137 136 135 138 138
144 155 149 135 141 157 176 194 123 139 175 169 175 158 208 236 244 265 263 168 139 157 140 81 90 99 97 135 149 107 133 114 133 142 141 136 129 130 130 131 136 132 132
144 162 158 159 169 175 142 137 174 208 205 175 161 157 204 198 234 226 256 153 142 114 136 130 137 115 85 60 100 124 114 102 113 133 129 126 126 129 133 132 132 133 139
148 127 134 167 147 124 145 168 176 217 172 161 159 160 167 335 243 225 201 155 150 142 183 132 127 86 85 81 83 71 75 75 87 123 112 121 126 128 130 134 134 141 148
139 151 145 106 126 134 120 96 113 145 163 150 137 142 129 16 292 217 191 184 153 140 136 119 110 94 85 77 79 101 86 93 103 101 93 109 119 124 124 126 135 151 150
128 108 104 87 103 71 47 50 77 102 123 125 135 139 157 204 304 35 341 195 150 130 119 122 131 134 116 128 129 112 109 103 76 97 111 108 116 116 121 125 149 149 148
110 119 104 107 86 83 56 53 38 115 130 140 146 154 189 193 153 74 99 317 199 142 136 141 144 148 138 113 124 129 129 129 109 109 105 103 121 129 144 148 151 142 149
124 113 109 102 96 92 60 40 21 114 121 131 160 166 188 199 160 157 122 70 103 120 129 148 149 157 139 140 134 137 142 127 112 137 121 117 94 130 151 105 153 156 149
112 118 112 107 93 85 60 46 61 100 102 111 109 156 178 156 190 156 161 111 105 108 126 132 135 129 127 137 136 137 122 104 98 122 138 124 177 165 163 118 136 145 149
143 127 119 112 114 102 43 57 108 90 103 114 103 119 254 102 77 63 113 104 89 79 63 99 112 111 123 135 125 124 131 133 128 136 242 107 173 157 189 159 162 163 178
149 121 102 103 111 115 55 39 49 131 126 112 90 95 29 110 91 121 119 116 108 113 108 105 103 100 108 127 140 137 146 143 138 116 225 110 158 161 193 168 153 168 196